When you browse on this site, cookies collect data to enhance your experience and personalize the content and advertising you see.
Visit our Privacy Policy to learn more. By continuing to use the site, you agree to this use of cookies and data.
  • In France
  • List of Countries
  • For 7 days
  • Water Temperature
  • Satellite Maps
  • Weather Map
  • Weather Widgets
  • user-avatar
    Login

    Hourly Weather Sydney

    Today, 18 December, Tuesday

    Time Temperature Precipitation Wind Pressure Humidity
    00:00 +21°C° 0 mm 3 mps 758 mmHg 89%
    01:00 +21°C° 0 mm 3 mps 758 mmHg 91%
    02:00 +21°C° 0 mm 3 mps 758 mmHg 91%
    03:00 +21°C° 0 mm 3 mps 758 mmHg 91%
    04:00 +21°C° 0 mm 3 mps 758 mmHg 90%
    05:00 +22°C° 0 mm 3 mps 758 mmHg 88%
    06:00 +22°C° 0 mm 3 mps 758 mmHg 85%
    07:00 +22°C° 0 mm 4 mps 759 mmHg 83%
    08:00 +23°C° 0 mm 4 mps 759 mmHg 78%
    09:00 +26°C° 0 mm 4 mps 759 mmHg 73%
    10:00 +27°C° 0 mm 4 mps 759 mmHg 68%
    11:00 +28°C° 0 mm 5 mps 759 mmHg 63%
    12:00 +29°C° 0 mm 5 mps 759 mmHg 58%
    13:00 +32°C° 0 mm 5 mps 758 mmHg 54%
    14:00 +30°C° 0 mm 5 mps 758 mmHg 57%
    15:00 +29°C° 0 mm 5 mps 758 mmHg 60%
    16:00 +27°C° 0 mm 6 mps 758 mmHg 67%
    17:00 +26°C° 0 mm 5 mps 758 mmHg 71%
    18:00 +25°C° 0 mm 5 mps 759 mmHg 76%
    19:00 +23°C° 0 mm 5 mps 759 mmHg 80%
    20:00 +22°C° 0 mm 5 mps 760 mmHg 82%
    21:00 +22°C° 0 mm 4 mps 760 mmHg 84%
    22:00 +22°C° 0 mm 4 mps 760 mmHg 86%
    23:00 +21°C° 0.1 mm 4 mps 760 mmHg 87%

    Tomorrow, 19 December, Wednesday

    Time Temperature Precipitation Wind Pressure Humidity
    00:00 +21°C° 0.1 mm 4 mps 760 mmHg 88%
    01:00 +21°C° 0.1 mm 4 mps 760 mmHg 88%
    02:00 +21°C° 0 mm 4 mps 760 mmHg 89%
    03:00 +21°C° 0 mm 4 mps 760 mmHg 89%
    04:00 +21°C° 0 mm 4 mps 759 mmHg 90%
    05:00 +21°C° 0 mm 4 mps 759 mmHg 89%
    06:00 +21°C° 0 mm 4 mps 760 mmHg 89%
    07:00 +21°C° 0 mm 4 mps 760 mmHg 88%
    08:00 +21°C° 0.1 mm 4 mps 760 mmHg 87%
    09:00 +22°C° 0.1 mm 3 mps 760 mmHg 87%
    10:00 +22°C° 0.1 mm 3 mps 760 mmHg 86%
    11:00 +24°C° 0.1 mm 3 mps 759 mmHg 83%
    12:00 +23°C° 0.1 mm 4 mps 759 mmHg 80%
    13:00 +25°C° 0.1 mm 4 mps 759 mmHg 77%
    14:00 +25°C° 0.7 mm 4 mps 758 mmHg 79%
    15:00 +25°C° 0.7 mm 4 mps 758 mmHg 81%
    16:00 +25°C° 0.7 mm 4 mps 757 mmHg 84%
    17:00 +25°C° 2 mm 4 mps 757 mmHg 87%
    18:00 +24°C° 2 mm 3 mps 757 mmHg 91%
    19:00 +22°C° 2 mm 3 mps 757 mmHg 95%
    20:00 +22°C° 1.3 mm 3 mps 758 mmHg 95%
    21:00 +23°C° 1.3 mm 2 mps 758 mmHg 96%
    22:00 +23°C° 1.3 mm 2 mps 758 mmHg 96%
    23:00 +23°C° 0.8 mm 2 mps 758 mmHg 97%

    Day after tomorrow, 20 December, Thursday

    Time Temperature Precipitation Wind Pressure Humidity
    00:00 +23°C° 0.8 mm 2 mps 757 mmHg 97%
    01:00 +23°C° 0.8 mm 2 mps 757 mmHg 97%
    02:00 +23°C° 0 mm 1 mps 756 mmHg 97%
    03:00 +22°C° 0 mm 1 mps 756 mmHg 97%
    04:00 +20°C° 0 mm 0 mps 755 mmHg 97%
    05:00 +23°C° 0 mm 1 mps 755 mmHg 95%
    06:00 +24°C° 0 mm 1 mps 755 mmHg 93%
    07:00 +25°C° 0 mm 1 mps 755 mmHg 91%
    08:00 +27°C° 0 mm 1 mps 755 mmHg 80%
    09:00 +29°C° 0 mm 1 mps 754 mmHg 70%
    10:00 +32°C° 0 mm 2 mps 754 mmHg 60%
    11:00 +35°C° 0.1 mm 3 mps 753 mmHg 53%
    12:00 +37°C° 0.1 mm 4 mps 752 mmHg 46%
    13:00 +40°C° 0.1 mm 4 mps 751 mmHg 40%
    14:00 +39°C° 0.4 mm 5 mps 750 mmHg 44%
    15:00 +36°C° 0.4 mm 6 mps 749 mmHg 47%
    16:00 +35°C° 0.4 mm 7 mps 748 mmHg 51%
    17:00 +34°C° 0 mm 7 mps 748 mmHg 54%
    18:00 +33°C° 0 mm 7 mps 748 mmHg 57%
    19:00 +32°C° 0 mm 7 mps 748 mmHg 60%
    20:00 +29°C° 0.2 mm 7 mps 748 mmHg 69%
    21:00 +28°C° 0.2 mm 7 mps 749 mmHg 78%
    22:00 +26°C° 0.2 mm 7 mps 749 mmHg 87%
    23:00 +26°C° 0 mm 6 mps 749 mmHg 86%

    21 December, Friday

    Time Temperature Precipitation Wind Pressure Humidity
    00:00 +25°C° 0 mm 5 mps 750 mmHg 86%
    01:00 +25°C° 0 mm 4 mps 750 mmHg 85%
    02:00 +25°C° 0.1 mm 5 mps 750 mmHg 84%
    03:00 +24°C° 0.1 mm 6 mps 750 mmHg 84%
    04:00 +23°C° 0.1 mm 7 mps 750 mmHg 83%
    05:00 +23°C° 0 mm 6 mps 751 mmHg 81%
    06:00 +23°C° 0 mm 6 mps 752 mmHg 78%
    07:00 +23°C° 0 mm 6 mps 753 mmHg 75%
    08:00 +24°C° 0 mm 6 mps 753 mmHg 69%
    09:00 +27°C° 0 mm 6 mps 753 mmHg 63%
    10:00 +28°C° 0 mm 6 mps 753 mmHg 56%
    11:00 +29°C° 0 mm 6 mps 753 mmHg 55%
    12:00 +29°C° 0 mm 6 mps 752 mmHg 53%
    13:00 +29°C° 0 mm 6 mps 752 mmHg 52%
    14:00 +29°C° 0 mm 5 mps 752 mmHg 54%
    15:00 +28°C° 0 mm 5 mps 751 mmHg 56%
    16:00 +27°C° 0 mm 4 mps 751 mmHg 57%
    17:00 +26°C° 0 mm 4 mps 752 mmHg 62%
    18:00 +25°C° 0 mm 4 mps 752 mmHg 67%
    19:00 +22°C° 0 mm 3 mps 753 mmHg 72%
    20:00 +22°C° 0 mm 3 mps 753 mmHg 75%
    21:00 +21°C° 0 mm 3 mps 753 mmHg 79%
    22:00 +20°C° 0 mm 3 mps 754 mmHg 82%
    23:00 +20°C° 0 mm 3 mps 754 mmHg 84%

    22 December, Saturday

    Time Temperature Precipitation Wind Pressure Humidity
    00:00 +20°C° 0 mm 3 mps 753 mmHg 85%
    01:00 +20°C° 0 mm 3 mps 753 mmHg 86%
    02:00 +19°C° 0 mm 3 mps 753 mmHg 86%
    03:00 +19°C° 0 mm 4 mps 753 mmHg 86%
    04:00 +19°C° 0 mm 4 mps 753 mmHg 86%
    05:00 +20°C° 0 mm 5 mps 754 mmHg 83%
    06:00 +20°C° 0 mm 5 mps 755 mmHg 80%
    07:00 +21°C° 0 mm 6 mps 755 mmHg 77%
    08:00 +22°C° 0.1 mm 6 mps 755 mmHg 71%
    09:00 +23°C° 0.1 mm 7 mps 756 mmHg 65%
    10:00 +24°C° 0.1 mm 7 mps 756 mmHg 59%
    11:00 +24°C° 0.1 mm 8 mps 756 mmHg 55%
    12:00 +26°C° 0.1 mm 8 mps 756 mmHg 51%
    13:00 +27°C° 0.1 mm 8 mps 756 mmHg 47%
    14:00 +26°C° 0 mm 8 mps 756 mmHg 48%
    15:00 +26°C° 0 mm 9 mps 757 mmHg 50%
    16:00 +24°C° 0 mm 9 mps 757 mmHg 51%
    17:00 +23°C° 0 mm 8 mps 758 mmHg 56%
    18:00 +21°C° 0 mm 7 mps 758 mmHg 61%
    19:00 +20°C° 0 mm 7 mps 759 mmHg 67%
    20:00 +19°C° 0 mm 6 mps 760 mmHg 69%
    21:00 +19°C° 0 mm 6 mps 760 mmHg 72%
    22:00 +17°C° 0 mm 6 mps 761 mmHg 75%
    23:00 +17°C° 0 mm 6 mps 761 mmHg 77%

    23 December, Sunday

    Time Temperature Precipitation Wind Pressure Humidity
    00:00 +16°C° 0 mm 5 mps 761 mmHg 78%
    01:00 +16°C° 0 mm 5 mps 761 mmHg 79%
    02:00 +16°C° 0 mm 5 mps 761 mmHg 81%
    03:00 +15°C° 0 mm 5 mps 761 mmHg 83%
    04:00 +15°C° 0 mm 5 mps 762 mmHg 85%
    05:00 +16°C° 0.1 mm 5 mps 762 mmHg 80%
    06:00 +18°C° 0.1 mm 4 mps 763 mmHg 75%
    07:00 +20°C° 0.1 mm 4 mps 764 mmHg 70%
    08:00 +21°C° 0.1 mm 4 mps 764 mmHg 66%
    09:00 +22°C° 0.1 mm 4 mps 764 mmHg 62%
    10:00 +23°C° 0.1 mm 4 mps 764 mmHg 57%
    11:00 +25°C° 0.1 mm 4 mps 764 mmHg 54%
    12:00 +25°C° 0.1 mm 4 mps 764 mmHg 51%
    13:00 +26°C° 0.1 mm 4 mps 764 mmHg 47%
    14:00 +26°C° 0 mm 4 mps 763 mmHg 48%
    15:00 +26°C° 0 mm 4 mps 763 mmHg 48%
    16:00 +26°C° 0 mm 4 mps 763 mmHg 49%
    17:00 +23°C° 0 mm 4 mps 764 mmHg 54%
    18:00 +22°C° 0 mm 3 mps 764 mmHg 60%
    19:00 +20°C° 0 mm 3 mps 764 mmHg 65%
    20:00 +19°C° 0 mm 3 mps 765 mmHg 68%
    21:00 +18°C° 0 mm 2 mps 765 mmHg 72%
    22:00 +18°C° 0 mm 2 mps 766 mmHg 75%
    23:00 +17°C° 0 mm 2 mps 766 mmHg 77%
    Show more